Location: Waco, TX
(31.5480°N, 97.1670°W)
Time: 11:46:18
(UTC-05:00)

ISS - Pass Details

Date: 12 October 2018
Orbit: 403 x 408 km, 51.6° (Epoch: 23 October)

Event Time Altitude Azimuth Distance (km) Brightness Sun altitude
Rises 13:26:53 0° 267° (W) 2,320 0.1 50.8°
Reaches altitude 10° 13:29:48 10° 296° (WNW) 1,464 -1.0 50.7°
Maximum altitude 13:31:30 13° 327° (NNW) 1,278 -1.5 50.7°
Drops below altitude 10° 13:33:12 10° 358° (N) 1,468 -1.3 50.6°
Sets 13:36:09 0° 27° (NNE) 2,332 -0.3 50.5°
